Online Auction of Sound, Stage, and Lighting Equipment for Sale in Orange County, CA

Lot #0142: 4' Aluminum Stage Truss

Bidding is closed.
High Bid:$350.00
NA
Bidding Ended: Thu, Jan 10  10:44:27 am PT
High Bidder: pixelwerks
Bid Increment: $10.00
Starting Bid: $5.00
Item Location: Fullerton, CA 92833
Item has been viewed 392 times.

4' Aluminum Stage Truss

NOTE: Photos shown are representative of the lot. 

Bid Date Bid Amount Bidder
Jan 10, 2019 - 10:42:27 AM $350.00 ipixelwerks
Jan 10, 2019 - 10:42:28 AM $350.00 iLighting101
Jan 10, 2019 - 10:40:37 AM $330.00 ipixelwerks
Jan 10, 2019 - 10:40:37 AM $320.00 iLighting101
Jan 10, 2019 - 10:40:25 AM $310.00 ipixelwerks
Jan 10, 2019 - 10:40:25 AM $300.00 iLighting101
Jan 10, 2019 - 10:40:16 AM $260.00 ipixelwerks
Jan 10, 2019 - 10:40:16 AM $250.00 iBP1
Jan 10, 2019 - 10:39:40 AM $225.00 iBP1
Jan 10, 2019 - 10:39:40 AM $215.00 iLighting101
Jan 10, 2019 - 10:35:43 AM $210.00 iLighting101
Jan 10, 2019 - 10:35:35 AM $200.00 i4StarProd
Jan 10, 2019 - 10:35:36 AM $200.00 iLighting101
Jan 10, 2019 - 10:29:48 AM $175.00 i4StarProd
Jan 10, 2019 - 10:23:19 AM $165.00 iLighting101
Jan 10, 2019 - 10:23:11 AM $155.00 islsprod
Jan 10, 2019 - 10:23:11 AM $150.00 iLighting101
Jan 10, 2019 - 9:32:52 AM $140.00 islsprod
Jan 10, 2019 - 9:32:52 AM $130.00 ilakinetics
Jan 9, 2019 - 6:48:23 PM $120.00 islsprod
Jan 9, 2019 - 6:48:23 PM $110.00 iLighting101
Jan 9, 2019 - 10:52:12 AM $105.00 iLighting101
Jan 9, 2019 - 10:52:12 AM $100.00 ifuzztheraven
Jan 9, 2019 - 9:57:55 AM $95.00 ifuzztheraven
Jan 9, 2019 - 9:57:55 AM $90.00 iLighting101
Jan 9, 2019 - 9:25:34 AM $86.00 iLighting101
Jan 9, 2019 - 9:25:34 AM $81.00 i4StarProd
Jan 8, 2019 - 7:37:03 PM $80.00 i4StarProd
Jan 8, 2019 - 7:37:03 PM $75.00 ipixelwerks
Jan 8, 2019 - 5:14:44 PM $65.00 ipixelwerks
Jan 8, 2019 - 5:14:44 PM $60.00 islsprod
Jan 8, 2019 - 12:38:28 PM $35.00 ipixelwerks
Jan 8, 2019 - 12:38:28 PM $30.00 iKurt Musser
Jan 8, 2019 - 11:53:34 AM $25.00 ipixelwerks
Jan 8, 2019 - 11:53:34 AM $20.00 iacmefx
Jan 8, 2019 - 10:16:21 AM $5.00 ipixelwerks
Click on any picture to see a larger image.